Location: Unspecified
(41.4860°N, 0.0000°E)
Time: 03:28:42
(UTC+00:00)

Orbcomm-X - Visible Passes

Search period start: 04 April 2026 00:00
Search period end: 14 April 2026 00:00
Orbit: 752 x 762 km, 98.4° (Epoch: 29 March)

Date Brightness Start Highest point End Pass type
(mag) Time Alt. Az. Time Alt. Az. Time Alt. Az.
4 Apr ? 20:44:21 24° NE 20:44:21 24° NE 20:47:27 10° N visible
4 Apr ? 22:24:21 24° NW 22:24:21 24° NW 22:26:37 10° NNW visible
5 Apr ? 20:04:32 12° ENE 20:04:34 12° ENE 20:06:24 10° NE visible
5 Apr ? 21:44:33 39° NNW 21:44:33 39° NNW 21:47:41 10° NNW visible
6 Apr ? 21:04:46 34° NE 21:04:46 34° NE 21:08:12 10° N visible
6 Apr ? 22:44:47 18° WNW 22:44:47 18° WNW 22:46:31 10° NW visible
7 Apr ? 20:24:58 18° ENE 20:24:58 18° ENE 20:28:00 10° NNE visible
7 Apr ? 22:04:59 34° NW 22:04:59 34° NW 22:07:59 10° NNW visible
8 Apr ? 21:25:11 44° NNE 21:25:11 44° NNE 21:28:46 10° N visible
8 Apr ? 23:05:12 12° WNW 23:05:12 12° WNW 23:05:56 10° NW visible
9 Apr ? 20:45:23 26° NE 20:45:23 26° NE 20:49:00 10° N visible
9 Apr ? 22:25:25 26° NW 22:25:25 26° NW 22:28:06 10° NNW visible
10 Apr ? 20:05:36 12° ENE 20:06:03 12° ENE 20:08:04 10° NE visible
10 Apr ? 21:45:37 47° NNW 21:45:37 47° NNW 21:49:12 10° NNW visible
11 Apr ? 21:05:49 38° NE 21:05:49 38° NE 21:09:43 10° N visible
11 Apr ? 22:45:50 19° WNW 22:45:50 19° WNW 22:47:57 10° NW visible
12 Apr ? 20:26:01 19° ENE 20:26:09 19° ENE 20:29:34 10° NNE visible
12 Apr ? 22:06:02 40° NW 22:06:02 40° NW 22:09:28 10° NNW visible
13 Apr ? 21:26:15 53° NNE 21:26:15 53° NNE 21:30:17 10° N visible
13 Apr ? 23:06:15 13° WNW 23:06:15 13° WNW 23:07:19 10° WNW visible
